| time (UTC) | temp F | wind direction | speed MPH | gust MPH | rain 1hr in | rain 24hr in | rain mn in | humidity % | barometer mb |
| 20260505125017 | 59 | 180 | 2.0 | 4.0 | 0.00 | 0.00 | 0.00 | 63 | 997.2 |
| 20260505124017 | 59 | 203 | 2.0 | 4.0 | 0.00 | 0.00 | 0.00 | 63 | 997.1 |
| 20260505123058 | 59 | 203 | 2.0 | 4.0 | 0.00 | 0.00 | 0.00 | 63 | 997.1 |
| 20260505122017 | 59 | 158 | 1.0 | 4.0 | 0.00 | 0.00 | 0.00 | 63 | 997.0 |
| 20260505121017 | 59 | 203 | 2.0 | 8.0 | 0.00 | 0.00 | 0.00 | 63 | 997.0 |
| 20260505120017 | 59 | 180 | 2.0 | 4.0 | 0.00 | 0.02 | 0.00 | 62 | 997.0 |
| 20260505115017 | 59 | 203 | 3.0 | 5.0 | 0.00 | 0.04 | 0.00 | 62 | 997.0 |
| 20260505114017 | 58 | 180 | 3.0 | 6.0 | 0.00 | 0.06 | 0.00 | 62 | 996.9 |
| 20260505113017 | 58 | 180 | 3.0 | 6.0 | 0.00 | 0.06 | 0.00 | 62 | 996.9 |
| 20260505112017 | 58 | 180 | 3.0 | 5.0 | 0.00 | 0.08 | 0.00 | 62 | 996.8 |
| 20260505111017 | 58 | 203 | 3.0 | 5.0 | 0.00 | 0.09 | 0.00 | 61 | 997.0 |
| 20260505102038 | 58 | 180 | 2.0 | 4.0 | 0.00 | 0.13 | 0.00 | 59 | 996.3 |
| 20260505101017 | 59 | 180 | 1.0 | 3.0 | 0.00 | 0.13 | 0.00 | 58 | 996.3 |
| 20260505100017 | 59 | 203 | 2.0 | 5.0 | 0.00 | 0.13 | 0.00 | 58 | 996.5 |
| 20260505095017 | 59 | 225 | 2.0 | 6.0 | 0.00 | 0.13 | 0.00 | 57 | 996.6 |
| 20260505094017 | 59 | 225 | 2.0 | 4.0 | 0.00 | 0.14 | 0.00 | 57 | 996.3 |
| 20260505093017 | 59 | 203 | 3.0 | 5.0 | 0.00 | 0.15 | 0.00 | 57 | 996.4 |
| 20260505092017 | 59 | 180 | 3.0 | 6.0 | 0.00 | 0.16 | 0.00 | 57 | 996.0 |
| 20260505091017 | 59 | 180 | 3.0 | 5.0 | 0.00 | 0.17 | 0.00 | 56 | 996.1 |
| 20260505090017 | 59 | 180 | 3.0 | 4.0 | 0.00 | 0.19 | 0.00 | 56 | 996.1 |
| 20260505085037 | 59 | 180 | 3.0 | 6.0 | 0.00 | 0.20 | 0.00 | 55 | 996.3 |
| 20260505084037 | 60 | 203 | 3.0 | 7.0 | 0.00 | 0.22 | 0.00 | 53 | 996.7 |
| 20260505083017 | 60 | 203 | 3.0 | 4.0 | 0.00 | 0.23 | 0.00 | 53 | 996.5 |
| 20260505082017 | 60 | 203 | 3.0 | 5.0 | 0.00 | 0.24 | 0.00 | 52 | 996.5 |
| 20260505081018 | 60 | 225 | 3.0 | 5.0 | 0.00 | 0.24 | 0.00 | 51 | 996.6 |
| 20260505080017 | 61 | 203 | 3.0 | 6.0 | 0.00 | 0.25 | 0.00 | 50 | 996.7 |
| 20260505075017 | 61 | 203 | 4.0 | 9.0 | 0.00 | 0.26 | 0.00 | 50 | 996.4 |
| 20260505074017 | 61 | 203 | 4.0 | 10.0 | 0.00 | 0.26 | 0.00 | 49 | 996.4 |
| 20260505073017 | 61 | 203 | 4.0 | 7.0 | 0.00 | 0.27 | 0.00 | 48 | 996.5 |
| 20260505072017 | 61 | 203 | 4.0 | 6.0 | 0.00 | 0.27 | 0.00 | 48 | 996.6 |
| 20260505071017 | 61 | 203 | 3.0 | 7.0 | 0.00 | 0.27 | 0.00 | 47 | 996.6 |
| 20260505070017 | 61 | 203 | 4.0 | 6.0 | 0.00 | 0.27 | 0.00 | 47 | 996.6 |
| 20260505065037 | 61 | 203 | 4.0 | 5.0 | 0.00 | 0.27 | 0.00 | 47 | 996.6 |
| 20260505064017 | 61 | 203 | 3.0 | 5.0 | 0.00 | 0.27 | 0.00 | 48 | 996.7 |
| 20260505063017 | 60 | 180 | 3.0 | 6.0 | 0.00 | 0.27 | 0.00 | 48 | 996.7 |
| 20260505062017 | 61 | 180 | 3.0 | 5.0 | 0.00 | 0.27 | 0.00 | 48 | 996.8 |
| 20260505061017 | 61 | 180 | 3.0 | 5.0 | 0.00 | 0.27 | 0.00 | 48 | 997.1 |
| 20260505060018 | 61 | 180 | 3.0 | 4.0 | 0.00 | 0.27 | 0.00 | 48 | 997.2 |
| 20260505055017 | 61 | 203 | 3.0 | 4.0 | 0.00 | 0.27 | 0.00 | 47 | 997.4 |
| 20260505054017 | 61 | 203 | 2.0 | 4.0 | 0.00 | 0.27 | 0.00 | 48 | 997.5 |
| 20260505053017 | 62 | 203 | 3.0 | 5.0 | 0.00 | 0.27 | 0.00 | 47 | 997.6 |
| 20260505052017 | 62 | 203 | 2.0 | 4.0 | 0.00 | 0.27 | 0.00 | 47 | 997.8 |
| 20260505051017 | 62 | 203 | 3.0 | 4.0 | 0.00 | 0.27 | 0.00 | 48 | 997.8 |
| 20260505041037 | 62 | 203 | 3.0 | 6.0 | 0.00 | 0.27 | 0.00 | 51 | 998.2 |
| 20260505040017 | 62 | 180 | 3.0 | 6.0 | 0.00 | 0.27 | 0.27 | 50 | 998.2 |
| 20260505035018 | 62 | 203 | 3.0 | 6.0 | 0.00 | 0.27 | 0.27 | 50 | 998.3 |
| 20260505034017 | 62 | 180 | 3.0 | 6.0 | 0.00 | 0.27 | 0.27 | 51 | 998.3 |
| 20260505033017 | 62 | 180 | 3.0 | 6.0 | 0.00 | 0.27 | 0.27 | 51 | 998.4 |
| 20260505032017 | 62 | 203 | 3.0 | 4.0 | 0.00 | 0.27 | 0.27 | 52 | 998.5 |
| 20260505031017 | 62 | 203 | 2.0 | 4.0 | 0.00 | 0.27 | 0.27 | 52 | 998.5 |
| 20260505030017 | 62 | 180 | 3.0 | 4.0 | 0.00 | 0.27 | 0.27 | 52 | 998.5 |
| 20260505025017 | 62 | 203 | 3.0 | 5.0 | 0.00 | 0.27 | 0.27 | 51 | 998.6 |
| 20260505024017 | 63 | 180 | 3.0 | 5.0 | 0.00 | 0.27 | 0.27 | 51 | 998.7 |
| 20260505023017 | 63 | 180 | 2.0 | 5.0 | 0.00 | 0.27 | 0.27 | 51 | 998.7 |
| 20260505022018 | 63 | 203 | 3.0 | 4.0 | 0.00 | 0.27 | 0.27 | 51 | 998.8 |
| 20260505021017 | 63 | 180 | 2.0 | 3.0 | 0.00 | 0.27 | 0.27 | 51 | 998.8 |
| 20260505020017 | 63 | 180 | 3.0 | 5.0 | 0.00 | 0.27 | 0.27 | 51 | 998.7 |
| 20260505015018 | 63 | 180 | 3.0 | 5.0 | 0.00 | 0.27 | 0.27 | 51 | 998.7 |
| 20260505014017 | 62 | 203 | 3.0 | 5.0 | 0.00 | 0.27 | 0.27 | 52 | 998.6 |
| 20260505013017 | 61 | 158 | 3.0 | 4.0 | 0.00 | 0.27 | 0.27 | 56 | 998.6 |
| 20260505012017 | 60 | 158 | 2.0 | 3.0 | 0.00 | 0.27 | 0.27 | 59 | 998.6 |
| 20260505011017 | 60 | 158 | 2.0 | 3.0 | 0.00 | 0.27 | 0.27 | 59 | 998.6 |
| 20260505010018 | 60 | 158 | 1.0 | 2.0 | 0.00 | 0.27 | 0.27 | 59 | 998.5 |
| 20260505005038 | 60 | 158 | 2.0 | 2.0 | 0.00 | 0.27 | 0.27 | 60 | 998.4 |
| 20260505004017 | 59 | 0.0 | 0.0 | 0.00 | 0.27 | 0.27 | 61 | 998.3 | |
| 20260505003017 | 60 | 0.0 | 0.0 | 0.00 | 0.27 | 0.27 | 61 | 998.3 | |
| 20260505002017 | 60 | 0.0 | 0.0 | 0.00 | 0.27 | 0.27 | 61 | 998.4 | |
| 20260505001017 | 60 | 0.0 | 1.0 | 0.00 | 0.27 | 0.27 | 61 | 998.5 | |
| 20260505000017 | 60 | 158 | 1.0 | 2.0 | 0.00 | 0.27 | 0.27 | 61 | 998.4 |
| 20260504235037 | 61 | 0.0 | 2.0 | 0.00 | 0.27 | 0.27 | 60 | 998.3 | |
| 20260504234017 | 62 | 158 | 4.0 | 5.0 | 0.00 | 0.27 | 0.27 | 57 | 998.4 |
| 20260504233037 | 61 | 113 | 2.0 | 4.0 | 0.00 | 0.27 | 0.27 | 59 | 998.3 |
| 20260504232017 | 62 | 0.0 | 0.0 | 0.00 | 0.27 | 0.27 | 58 | 998.4 | |
| 20260504231017 | 62 | 0.0 | 0.0 | 0.00 | 0.27 | 0.27 | 58 | 998.5 | |
| 20260504230018 | 62 | 0.0 | 2.0 | 0.00 | 0.27 | 0.27 | 57 | 998.6 | |
| 20260504225037 | 62 | 90 | 1.0 | 4.0 | 0.00 | 0.27 | 0.27 | 57 | 998.7 |
| 20260504224017 | 62 | 90 | 2.0 | 4.0 | 0.00 | 0.27 | 0.27 | 58 | 998.8 |
| 20260504223017 | 62 | 90 | 2.0 | 4.0 | 0.00 | 0.27 | 0.27 | 57 | 999.1 |
| 20260504222018 | 62 | 90 | 3.0 | 5.0 | 0.00 | 0.27 | 0.27 | 58 | 999.1 |
| 20260504221017 | 63 | 135 | 1.0 | 2.0 | 0.00 | 0.27 | 0.27 | 57 | 999.2 |
| 20260504220038 | 63 | 135 | 2.0 | 5.0 | 0.00 | 0.27 | 0.27 | 56 | 999.1 |
| 20260504215018 | 63 | 135 | 1.0 | 3.0 | 0.00 | 0.27 | 0.27 | 60 | 999.1 |
| 20260504214158 | 62 | 135 | 2.0 | 4.0 | 0.00 | 0.27 | 0.27 | 61 | 999.2 |
| 20260504213018 | 62 | 0.0 | 3.0 | 0.00 | 0.27 | 0.27 | 62 | 999.4 | |
| 20260504212018 | 62 | 135 | 1.0 | 5.0 | 0.00 | 0.27 | 0.27 | 63 | 999.6 |
| 20260504211017 | 61 | 158 | 1.0 | 5.0 | 0.00 | 0.27 | 0.27 | 63 | 999.7 |
| 20260504210017 | 61 | 158 | 1.0 | 3.0 | 0.00 | 0.27 | 0.27 | 65 | 999.6 |
| 20260504205017 | 61 | 158 | 3.0 | 6.0 | 0.00 | 0.27 | 0.27 | 64 | 999.7 |
| 20260504204017 | 60 | 135 | 1.0 | 4.0 | 0.00 | 0.27 | 0.27 | 67 | 999.8 |
| 20260504203015 | 60 | 135 | 2.0 | 4.0 | 0.00 | 0.27 | 0.27 | 67 | 1000.0 |
| 20260504202017 | 60 | 135 | 3.0 | 9.0 | 0.00 | 0.27 | 0.27 | 68 | 1000.2 |
| 20260504201017 | 59 | 135 | 3.0 | 5.0 | 0.00 | 0.27 | 0.27 | 70 | 1000.4 |
| 20260504200018 | 58 | 135 | 3.0 | 6.0 | 0.00 | 0.27 | 0.27 | 71 | 1000.6 |
| 20260504195017 | 58 | 135 | 4.0 | 8.0 | 0.00 | 0.27 | 0.27 | 70 | 1000.8 |
| 20260504194038 | 57 | 135 | 3.0 | 5.0 | 0.00 | 0.27 | 0.27 | 72 | 1000.8 |
| 20260504193037 | 57 | 135 | 4.0 | 8.0 | 0.00 | 0.27 | 0.27 | 71 | 1001.0 |
| 20260504192036 | 57 | 135 | 2.0 | 4.0 | 0.00 | 0.27 | 0.27 | 71 | 1001.2 |
| 20260504191017 | 58 | 158 | 3.0 | 5.0 | 0.00 | 0.27 | 0.27 | 70 | 1001.3 |
| 20260504190018 | 58 | 180 | 3.0 | 6.0 | 0.00 | 0.27 | 0.27 | 69 | 1001.4 |
| 20260504185017 | 58 | 180 | 1.0 | 4.0 | 0.00 | 0.27 | 0.27 | 71 | 1001.4 |
| 20260504184018 | 58 | 203 | 2.0 | 4.0 | 0.00 | 0.27 | 0.27 | 69 | 1001.5 |
| 20260504183017 | 58 | 203 | 3.0 | 5.0 | 0.00 | 0.27 | 0.27 | 68 | 1001.5 |
| 20260504182017 | 58 | 203 | 4.0 | 7.0 | 0.00 | 0.27 | 0.27 | 69 | 1001.5 |
| 20260504181017 | 57 | 180 | 3.0 | 4.0 | 0.00 | 0.27 | 0.27 | 70 | 1001.6 |
| 20260504180017 | 58 | 248 | 2.0 | 6.0 | 0.00 | 0.27 | 0.27 | 70 | 1001.6 |
| 20260504175018 | 58 | 203 | 3.0 | 6.0 | 0.00 | 0.27 | 0.27 | 67 | 1001.7 |
| 20260504174018 | 58 | 225 | 2.0 | 4.0 | 0.00 | 0.27 | 0.27 | 68 | 1001.7 |
| 20260504173017 | 58 | 248 | 2.0 | 7.0 | 0.00 | 0.27 | 0.27 | 71 | 1001.9 |
| 20260504172018 | 57 | 225 | 1.0 | 8.0 | 0.00 | 0.27 | 0.27 | 73 | 1002.0 |
| 20260504171018 | 56 | 180 | 2.0 | 4.0 | 0.00 | 0.27 | 0.27 | 75 | 1002.1 |
| 20260504151035 | 51 | 0.0 | 0.0 | 0.00 | 0.27 | 0.27 | 87 | 1002.8 | |
| 20260504141035 | 49 | 0.0 | 1.0 | 0.00 | 0.27 | 0.27 | 91 | 1002.6 |